[[{"header":{"parameterUnit":"m.s-1","parameterCategory":2,"la1":30.2991,"la2":30.254,"lo1":-89.0895,"lo2":-89.0444,"dy":0.0017,"dx":0.0017,"nx":28,"ny":28,"refTime":"2025-04-15T09:00:00:Z","depth":"0","parameterNumber":2,"parameterNumberName":"U-component_of_CURRENTS"},"data":[0,0,0,0,0,0,0,0,0,0,0,0,0,0,0,0,0,0,0,0,0,0,0,0,0,0,0,0,0,0,0,0,0,0,0,0,0,0,0,0,0,0,0,0,0,0,0,0,0,0,0,0,0,0,0,0,0,0,-0.2734,-0.2734,0,-0.2776,-0.2777,-0.2777,-0.2777,-0.2777,-0.2776,-0.2776,-0.2838,-0.284,-0.2842,0,0,0,0,0,0,0,0,0,0,0,0,0,-0.2663,-0.2664,-0.2734,-0.2735,-0.2735,-0.2776,-0.2777,-0.2777,-0.2777,-0.2777,-0.2776,-0.2776,-0.2837,-0.284,-0.2842,0,0,0,0,0,0,0,0,0,0,0,0,0,-0.2697,-0.2664,-0.2734,-0.2742,-0.2743,-0.2776,-0.2777,-0.2777,-0.2777,-0.2777,-0.2776,-0.2776,-0.2836,-0.2839,-0.2842,-0.2873,0,0,-0.2852,-0.2853,0,0,0,0,0,0,0,0,-0.2695,-0.2699,-0.274,-0.2741,-0.2743,-0.2772,-0.2774,-0.2811,-0.2778,-0.2762,-0.2776,-0.2775,-0.2819,-0.2824,-0.283,-0.2875,-0.2878,-0.2852,-0.2854,-0.2855,-0.2856,0,0,0,0,0,0,0,-0.2692,-0.2697,-0.2749,-0.2741,-0.2742,-0.2746,-0.275,-0.2781,-0.2793,-0.2764,-0.2764,-0.2772,-0.282,-0.2827,-0.2832,-0.2879,-0.2852,-0.2854,-0.2856,-0.2857,-0.2867,-0.2866,0,0,0,0,0,0,-0.2691,-0.2695,-0.2748,-0.275,-0.2719,-0.2748,-0.2753,-0.2762,-0.2792,-0.2796,-0.2772,-0.2772,-0.2822,-0.2828,-0.2834,-0.2835,-0.2855,-0.2858,-0.2859,-0.2869,-0.2867,-0.2865,0,0,0,0,0,0,-0.2689,-0.2695,-0.2746,-0.2725,-0.2732,-0.275,-0.2761,-0.2763,-0.277,-0.2799,-0.2803,-0.2777,-0.2822,-0.283,-0.2841,-0.2838,-0.2859,-0.2862,-0.287,-0.2868,-0.2866,-0.286,0,0,0,0,0,0,-0.2687,-0.2695,-0.2698,-0.2725,-0.2733,-0.2764,-0.2762,-0.2764,-0.2777,-0.2776,-0.2804,-0.2809,-0.2822,-0.2836,-0.2844,-0.2843,-0.2864,-0.2872,-0.2869,-0.2867,-0.2862,-0.2857,-0.2854,0,0,0,0,0,-0.2684,-0.2695,-0.2698,-0.2704,-0.2738,-0.2765,-0.2769,-0.2779,-0.2777,-0.2782,-0.2785,-0.2808,-0.2822,-0.2838,-0.2848,-0.2847,-0.2874,-0.287,-0.2867,-0.2864,-0.2858,-0.2854,0,0,0,0,0,0,-0.267,-0.2697,-0.2701,-0.2719,-0.2739,-0.2765,-0.2772,-0.2781,-0.2789,-0.2785,-0.2805,-0.281,-0.2812,-0.2825,-0.2842,-0.2833,-0.2846,-0.2844,-0.284,-0.2836,-0.2831,-0.2837,-0.2867,0,0,0,0,0,-0.2668,-0.2678,-0.2707,-0.272,-0.273,-0.2751,-0.2762,-0.277,-0.2784,-0.2787,-0.2802,-0.2806,-0.2806,-0.2818,-0.2821,-0.2837,-0.2827,-0.2833,-0.2829,-0.2826,-0.2831,-0.2803,-0.2797,-0.2854,-0.2854,-0.2854,0,0,-0.2665,-0.2681,-0.2686,-0.2716,-0.273,-0.2749,-0.2755,-0.2774,-0.2782,-0.2795,-0.2803,-0.2799,-0.2803,-0.2803,-0.2805,-0.2818,-0.2798,-0.2821,-0.2819,-0.2826,-0.2798,-0.2793,-0.2789,-0.2851,-0.2852,-0.2852,0,0,-0.2665,-0.2679,-0.2687,-0.2706,-0.2731,-0.2746,-0.2751,-0.2776,-0.2779,-0.2791,-0.2783,-0.2771,-0.2795,-0.2784,-0.2784,-0.2761,-0.2772,-0.2761,-0.2761,-0.2733,-0.2729,-0.2725,-0.2687,-0.268,-0.2767,-0.2766,-0.2766,0,-0.2659,-0.2677,-0.2694,-0.271,-0.2727,-0.2744,-0.2762,-0.277,-0.2791,-0.2791,-0.2789,-0.2777,-0.2781,-0.277,-0.2754,-0.2756,-0.274,-0.2787,-0.273,-0.2727,-0.2723,-0.2685,-0.2677,-0.2766,-0.2766,-0.2766,-0.2766,0,-0.2666,-0.2683,-0.2691,-0.2715,-0.2735,-0.2753,-0.2774,-0.2782,-0.2786,-0.2789,-0.2775,-0.2765,-0.2759,-0.2748,-0.2752,-0.2724,-0.2719,-0.2725,-0.2751,-0.2717,-0.2678,-0.2671,-0.2765,-0.2765,-0.2765,-0.2765,0,0,-0.264,-0.2687,-0.2687,-0.2704,-0.2741,-0.2758,-0.2773,-0.279,-0.2791,-0.2788,-0.2783,-0.276,-0.275,-0.2746,-0.2737,-0.2713,-0.2664,-0.2714,-0.2713,-0.269,-0.2595,-0.2489,-0.2471,-0.2668,-0.2667,-0.2666,-0.2573,0,-0.2637,-0.2669,-0.2695,-0.2722,-0.2743,-0.277,-0.2783,-0.2796,-0.28,-0.2796,-0.2772,-0.276,-0.2751,-0.2744,-0.2718,-0.2688,-0.2646,-0.2688,-0.2619,-0.2617,-0.2539,-0.2459,-0.2359,-0.2258,-0.2565,-0.2564,-0.2563,0,-0.2624,-0.2653,-0.2683,-0.273,-0.2741,-0.2758,-0.2783,-0.2798,-0.2797,-0.2798,-0.2783,-0.2771,-0.2739,-0.273,-0.2658,-0.269,-0.2638,-0.2603,-0.2599,-0.2501,-0.2496,-0.2342,-0.2232,-0.2207,-0.2551,-0.2552,-0.2553,0,-0.2586,-0.2638,-0.2663,-0.268,-0.2735,-0.2749,-0.2773,-0.2789,-0.2791,-0.2795,-0.2792,-0.2763,-0.2743,-0.2689,-0.2623,-0.2644,-0.253,-0.2551,-0.2396,-0.2389,-0.2288,-0.2272,-0.2157,-0.2472,-0.2472,-0.2473,-0.2473,0,-0.2566,-0.2579,-0.2647,-0.2659,-0.2676,-0.273,-0.2736,-0.2757,-0.2774,-0.2768,-0.2785,-0.2765,-0.2733,-0.2672,-0.2613,-0.2469,-0.2517,-0.2371,-0.2347,-0.2278,-0.2263,-0.2226,-0.2261,-0.2469,-0.247,-0.2471,-0.2471,0,-0.25,-0.2551,-0.2576,-0.2641,-0.2655,-0.2663,-0.2703,-0.2703,-0.2745,-0.274,-0.2741,-0.275,-0.2668,-0.2604,-0.2506,-0.2437,-0.2268,-0.2257,-0.2169,-0.2135,-0.1959,-0.1998,-0.1873,-0.182,-0.207,-0.2067,-0.2064,0,-0.2463,-0.2474,-0.2536,-0.2541,-0.2565,-0.259,-0.2596,-0.266,-0.267,-0.2718,-0.2705,-0.2654,-0.2565,-0.2383,-0.2254,-0.2092,-0.2114,-0.1925,-0.1933,-0.1903,-0.1931,-0.1978,-0.1948,-0.1797,-0.1792,-0.1788,-0.1785,0,-0.238,-0.2404,-0.2423,-0.2441,-0.2456,-0.247,-0.25,-0.2509,-0.2586,-0.2586,-0.2566,-0.2502,-0.2343,-0.2124,-0.1933,-0.1841,-0.1875,-0.1836,-0.1832,-0.1711,-0.173,-0.1683,-0.1916,-0.175,-0.1754,-0.1756,-0.1758,-0.176,-0.2291,-0.2281,-0.2307,-0.2307,-0.2327,-0.2328,-0.2304,-0.2352,-0.2343,-0.2324,-0.236,-0.2217,-0.2053,-0.175,-0.1654,-0.1476,-0.1575,-0.1432,-0.1482,-0.1533,-0.1469,-0.1607,-0.1402,-0.1404,-0.1405,-0.1406,-0.1407,0,-0.2161,-0.2163,-0.2166,-0.2166,-0.2135,-0.2193,-0.221,-0.2166,-0.2118,-0.2099,-0.2028,-0.1815,-0.1579,-0.1457,-0.1258,-0.1164,-0.1166,-0.1149,-0.1215,-0.1201,-0.1324,-0.1298,-0.1029,-0.1029,-0.1029,-0.1029,-0.1029,-0.1029,-0.2092,-0.2044,-0.2049,-0.1959,-0.196,-0.1885,-0.1869,-0.1827,-0.1786,-0.1619,-0.1506,-0.1436,-0.1323,-0.1272,-0.1104,-0.1037,-0.1041,-0.0994,-0.1042,-0.1165,-0.1198,-0.1228,-0.121,-0.0926,-0.0926,-0.0869,-0.0869,-0.0868]},{"header":{"parameterUnit":"m.s-1","parameterCategory":2,"la1":30.2991,"la2":30.254,"lo1":-89.0895,"lo2":-89.0444,"dy":0.0017,"dx":0.0017,"nx":28,"ny":28,"refTime":"2025-04-15T09:00:00:Z","depth":"0","parameterNumber":3,"parameterNumberName":"V-component_of_CURRENTS"},"data":[0,0,0,0,0,0,0,0,0,0,0,0,0,0,0,0,0,0,0,0,0,0,0,0,0,0,0,0,0,0,0,0,0,0,0,0,0,0,0,0,0,0,0,0,0,0,0,0,0,0,0,0,0,0,0,0,0,0,-0.046,-0.0459,0,-0.0396,-0.0396,-0.0395,-0.0345,-0.0345,-0.0345,-0.0344,-0.0199,-0.0196,-0.0193,0,0,0,0,0,0,0,0,0,0,0,0,0,-0.0491,-0.0491,-0.046,-0.0459,-0.0459,-0.0397,-0.0396,-0.0395,-0.0346,-0.0345,-0.0344,-0.0344,-0.0201,-0.0197,-0.0192,0,0,0,0,0,0,0,0,0,0,0,0,0,-0.0458,-0.0491,-0.046,-0.0427,-0.0423,-0.0397,-0.0396,-0.0395,-0.0346,-0.0345,-0.0344,-0.0344,-0.0202,-0.0197,-0.0192,-0.0174,0,0,-0.0176,-0.0174,0,0,0,0,0,0,0,0,-0.046,-0.0456,-0.0432,-0.0429,-0.0425,-0.0378,-0.0353,-0.0317,-0.0346,-0.0375,-0.0344,-0.0343,-0.0252,-0.0243,-0.0234,-0.0168,-0.0161,-0.0176,-0.0173,-0.017,-0.0169,0,0,0,0,0,0,0,-0.0462,-0.0459,-0.0435,-0.0432,-0.0427,-0.0398,-0.0393,-0.0346,-0.0317,-0.0372,-0.0369,-0.0362,-0.025,-0.0239,-0.023,-0.0159,-0.0176,-0.0171,-0.0168,-0.0166,-0.0066,-0.0066,0,0,0,0,0,0,-0.0473,-0.0461,-0.0437,-0.0433,-0.0441,-0.0398,-0.0393,-0.0394,-0.0319,-0.0308,-0.0363,-0.036,-0.0248,-0.0236,-0.0224,-0.0205,-0.0171,-0.0166,-0.0163,-0.0065,-0.0066,-0.0066,0,0,0,0,0,0,-0.0474,-0.0472,-0.0439,-0.0445,-0.0439,-0.0399,-0.04,-0.0393,-0.0381,-0.0312,-0.0299,-0.0358,-0.0247,-0.0231,-0.0193,-0.0199,-0.0163,-0.0159,-0.0065,-0.0065,-0.0066,-0.0163,0,0,0,0,0,0,-0.0476,-0.0473,-0.0478,-0.0446,-0.0439,-0.043,-0.0401,-0.0392,-0.0378,-0.0374,-0.0304,-0.029,-0.0245,-0.0201,-0.0188,-0.0191,-0.0155,-0.0064,-0.0065,-0.0066,-0.0159,-0.0167,-0.0173,0,0,0,0,0,-0.0477,-0.0489,-0.0478,-0.0475,-0.0447,-0.0431,-0.0425,-0.0393,-0.0379,-0.0379,-0.0337,-0.0293,-0.0196,-0.0198,-0.0182,-0.0184,-0.0064,-0.0065,-0.0066,-0.0156,-0.0165,-0.0173,0,0,0,0,0,0,-0.0502,-0.0484,-0.0472,-0.0477,-0.0457,-0.0422,-0.0419,-0.0399,-0.0368,-0.0362,-0.0299,-0.0282,-0.025,-0.0205,-0.0208,-0.0157,-0.0122,-0.012,-0.0196,-0.0204,-0.0211,-0.0227,-0.015,0,0,0,0,0,-0.0512,-0.0517,-0.0491,-0.0494,-0.0488,-0.0456,-0.0445,-0.0426,-0.0394,-0.038,-0.0332,-0.0282,-0.0242,-0.0215,-0.017,-0.0143,-0.009,-0.0132,-0.014,-0.0146,-0.0148,-0.0097,-0.01,-0.0069,-0.0069,-0.0069,0,0,-0.0521,-0.0512,-0.0514,-0.05,-0.0483,-0.0488,-0.0448,-0.0439,-0.044,-0.0368,-0.0352,-0.0304,-0.024,-0.0214,-0.0194,-0.0176,-0.0123,-0.0147,-0.0153,-0.0152,-0.0098,-0.0101,-0.0104,-0.007,-0.007,-0.0069,0,0,-0.0554,-0.0537,-0.0558,-0.0549,-0.0532,-0.0511,-0.0513,-0.0482,-0.0464,-0.0444,-0.0396,-0.0356,-0.0291,-0.0252,-0.0223,-0.024,-0.0164,-0.0222,-0.0267,-0.0218,-0.022,-0.0221,-0.0146,-0.014,-0.0224,-0.0224,-0.0224,0,-0.0568,-0.0592,-0.056,-0.0579,-0.0579,-0.0529,-0.0553,-0.0528,-0.0488,-0.0473,-0.045,-0.0363,-0.0311,-0.0277,-0.0286,-0.0256,-0.0207,-0.0244,-0.0228,-0.0228,-0.0228,-0.015,-0.0143,-0.0229,-0.0228,-0.0228,-0.0227,0,-0.0621,-0.0637,-0.0648,-0.0658,-0.0651,-0.066,-0.0628,-0.0613,-0.0581,-0.0549,-0.0506,-0.0439,-0.0386,-0.0365,-0.033,-0.0305,-0.0263,-0.0246,-0.0211,-0.0237,-0.0153,-0.0143,-0.0236,-0.0234,-0.0232,-0.0231,0,0,-0.0661,-0.0684,-0.0688,-0.071,-0.0696,-0.0698,-0.0696,-0.0677,-0.0664,-0.0616,-0.0594,-0.0534,-0.0486,-0.0451,-0.0397,-0.0354,-0.0308,-0.0308,-0.0303,-0.0241,-0.0178,-0.01,-0.008,-0.0293,-0.0293,-0.0292,-0.0116,0,-0.0714,-0.0778,-0.0767,-0.0814,-0.0843,-0.08,-0.0797,-0.0767,-0.0719,-0.0678,-0.0605,-0.0557,-0.0521,-0.0489,-0.0448,-0.0336,-0.0288,-0.0356,-0.0155,-0.0149,-0.0083,-0.0069,-0.0042,0.012,-0.0106,-0.0104,-0.0103,0,-0.0776,-0.081,-0.0876,-0.0897,-0.0902,-0.0913,-0.0892,-0.0883,-0.0808,-0.0766,-0.071,-0.0633,-0.0558,-0.0525,-0.0365,-0.041,-0.031,-0.0225,-0.0216,-0.0102,-0.0052,0.0109,0.0148,0.0254,-0.0087,-0.0088,-0.0089,0,-0.0836,-0.0884,-0.0942,-0.0953,-0.0963,-0.0974,-0.0967,-0.0911,-0.0886,-0.0815,-0.0769,-0.0678,-0.0596,-0.0492,-0.0307,-0.0339,-0.0107,-0.0127,0.004,0.0048,0.0132,0.0146,0.0291,-0.0024,-0.0024,-0.0025,-0.0025,0,-0.0906,-0.0949,-0.0975,-0.1008,-0.105,-0.1034,-0.1042,-0.1015,-0.095,-0.0899,-0.0818,-0.073,-0.0584,-0.0423,-0.0302,-0.0073,-0.0098,0.0046,0.0098,0.0102,0.011,0.0257,0.029,-0.0018,-0.0019,-0.0021,-0.0022,0,-0.0967,-0.0989,-0.1052,-0.1079,-0.1085,-0.1114,-0.1094,-0.1082,-0.1017,-0.0945,-0.0918,-0.0744,-0.0528,-0.0352,-0.0125,-0.003,0.0245,0.0239,0.0253,0.0302,0.0512,0.0538,0.0759,0.0848,0.0425,0.0428,0.043,0,-0.1006,-0.1049,-0.1103,-0.1132,-0.1149,-0.1174,-0.1175,-0.1129,-0.1093,-0.093,-0.0883,-0.0657,-0.046,-0.009,0.0113,0.0356,0.0423,0.0513,0.0439,0.0546,0.0613,0.0622,0.068,0.0523,0.0527,0.0529,0.0531,0,-0.1067,-0.1085,-0.1131,-0.1193,-0.122,-0.1236,-0.1225,-0.1202,-0.1108,-0.0993,-0.0779,-0.0603,-0.0244,0.0068,0.0373,0.0502,0.0596,0.0572,0.0675,0.0701,0.073,0.0833,0.0401,0.0553,0.0551,0.055,0.0548,0.0547,-0.1091,-0.1137,-0.1189,-0.1243,-0.1272,-0.1273,-0.1256,-0.1182,-0.1076,-0.0855,-0.07,-0.0366,-0.0003,0.0438,0.0587,0.0863,0.0816,0.0916,0.0944,0.0948,0.1016,0.0649,0.0856,0.0856,0.0855,0.0855,0.0855,0,-0.1111,-0.1163,-0.1227,-0.128,-0.1305,-0.1308,-0.126,-0.1178,-0.1005,-0.0756,-0.05,0.0012,0.038,0.0691,0.1049,0.1203,0.1215,0.1281,0.1278,0.1323,0.1,0.0984,0.1238,0.1238,0.1237,0.1237,0.1237,0.1237,-0.1122,-0.1189,-0.1228,-0.1282,-0.1311,-0.1289,-0.1246,-0.1067,-0.086,-0.0429,-0.0069,0.0226,0.0663,0.1142,0.1468,0.1501,0.1628,0.1628,0.1711,0.1446,0.1412,0.138,0.1373,0.1705,0.1705,0.2016,0.2019,0.2021]}],[{"header":{"parameterUnit":"m.s-1","parameterCategory":2,"la1":30.2991,"la2":30.254,"lo1":-89.0895,"lo2":-89.0444,"dy":0.0017,"dx":0.0017,"nx":28,"ny":28,"refTime":"2025-04-15T09:00:00:Z","depth":"2","parameterNumber":2,"parameterNumberName":"U-component_of_CURRENTS"},"data":[0,0,0,0,0,0,0,0,0,0,0,0,0,0,0,0,0,0,0,0,0,0,0,0,0,0,0,0,0,0,0,0,0,0,0,0,0,0,0,0,0,0,0,0,0,0,0,0,0,0,0,0,0,0,0,0,0,0,-0.2375,-0.2376,0,-0.2414,-0.2414,-0.2415,-0.2422,-0.2421,-0.2421,-0.2421,-0.2479,-0.2481,-0.2482,0,0,0,0,0,0,0,0,0,0,0,0,0,-0.2317,-0.2318,-0.2375,-0.2376,-0.2376,-0.2414,-0.2414,-0.2415,-0.2422,-0.2421,-0.2421,-0.2421,-0.2479,-0.2481,-0.2483,0,0,0,0,0,0,0,0,0,0,0,0,0,-0.2346,-0.2318,-0.2375,-0.2385,-0.2387,-0.2414,-0.2414,-0.2415,-0.2422,-0.2421,-0.2421,-0.2421,-0.2478,-0.248,-0.2483,-0.2504,0,0,-0.2491,-0.2492,0,0,0,0,0,0,0,0,-0.2344,-0.2348,-0.2383,-0.2385,-0.2386,-0.2414,-0.2415,-0.2446,-0.2422,-0.2407,-0.2421,-0.2421,-0.246,-0.2464,-0.247,-0.2507,-0.2509,-0.2491,-0.2493,-0.2494,-0.2494,0,0,0,0,0,0,0,-0.2342,-0.2347,-0.2389,-0.2384,-0.2386,-0.2392,-0.2395,-0.2421,-0.2434,-0.2408,-0.2409,-0.2416,-0.2461,-0.2467,-0.2471,-0.251,-0.2491,-0.2493,-0.2495,-0.2496,-0.2515,-0.2514,0,0,0,0,0,0,-0.2341,-0.2345,-0.2388,-0.239,-0.2366,-0.2393,-0.2397,-0.2404,-0.2433,-0.2438,-0.2416,-0.2416,-0.2463,-0.2468,-0.2473,-0.2485,-0.2494,-0.2496,-0.2497,-0.2516,-0.2515,-0.2514,0,0,0,0,0,0,-0.2339,-0.2344,-0.2386,-0.2369,-0.2375,-0.2394,-0.2402,-0.2405,-0.2415,-0.2439,-0.2444,-0.2424,-0.2463,-0.247,-0.2486,-0.2488,-0.2497,-0.25,-0.2518,-0.2516,-0.2515,-0.2518,0,0,0,0,0,0,-0.2337,-0.2343,-0.2347,-0.2369,-0.2376,-0.2403,-0.2403,-0.2406,-0.242,-0.2421,-0.2448,-0.2452,-0.2463,-0.2482,-0.2489,-0.2492,-0.2502,-0.2519,-0.2517,-0.2515,-0.2519,-0.2517,-0.2515,0,0,0,0,0,-0.2335,-0.2343,-0.2347,-0.2352,-0.2381,-0.2403,-0.2407,-0.2419,-0.2421,-0.2427,-0.2435,-0.2452,-0.2474,-0.2484,-0.2492,-0.2495,-0.252,-0.2517,-0.2515,-0.252,-0.2517,-0.2515,0,0,0,0,0,0,-0.2322,-0.2345,-0.235,-0.2365,-0.2383,-0.2405,-0.2413,-0.2422,-0.2435,-0.2435,-0.2452,-0.2458,-0.2468,-0.2477,-0.2487,-0.2489,-0.2495,-0.2494,-0.2496,-0.2493,-0.2491,-0.2491,-0.2504,0,0,0,0,0,-0.2321,-0.2329,-0.2354,-0.2365,-0.2375,-0.2394,-0.2405,-0.2415,-0.243,-0.2435,-0.2451,-0.2459,-0.2464,-0.2475,-0.2482,-0.2498,-0.2486,-0.2497,-0.2495,-0.2494,-0.2495,-0.2473,-0.247,-0.2506,-0.2506,-0.2506,0,0,-0.2318,-0.2332,-0.2336,-0.2362,-0.2376,-0.2394,-0.24,-0.2418,-0.2429,-0.2441,-0.2457,-0.2458,-0.2464,-0.2471,-0.2476,-0.2482,-0.2472,-0.2491,-0.249,-0.2492,-0.2471,-0.2467,-0.2464,-0.2505,-0.2505,-0.2505,0,0,-0.2318,-0.233,-0.2338,-0.2355,-0.2379,-0.2393,-0.24,-0.2424,-0.2431,-0.2449,-0.2446,-0.2443,-0.247,-0.2462,-0.2464,-0.2454,-0.2459,-0.2457,-0.2457,-0.2436,-0.2433,-0.2431,-0.2397,-0.2392,-0.246,-0.246,-0.246,0,-0.2314,-0.2329,-0.2344,-0.236,-0.2375,-0.2394,-0.241,-0.2422,-0.2446,-0.245,-0.2453,-0.2457,-0.2461,-0.2458,-0.2448,-0.2452,-0.2438,-0.2473,-0.2435,-0.2432,-0.243,-0.2396,-0.239,-0.246,-0.246,-0.246,-0.246,0,-0.2321,-0.2336,-0.2344,-0.2368,-0.2386,-0.2402,-0.2425,-0.2438,-0.2449,-0.2458,-0.2458,-0.2453,-0.2454,-0.2449,-0.2452,-0.2433,-0.2428,-0.2434,-0.2448,-0.2427,-0.2392,-0.2385,-0.2459,-0.2459,-0.246,-0.246,0,0,-0.2298,-0.2341,-0.2341,-0.2356,-0.2391,-0.2406,-0.2427,-0.2448,-0.2458,-0.2465,-0.247,-0.2459,-0.2454,-0.2452,-0.2446,-0.2427,-0.2389,-0.2427,-0.2426,-0.2403,-0.2336,-0.2239,-0.2223,-0.2397,-0.2396,-0.2396,-0.2314,0,-0.2296,-0.2323,-0.2347,-0.2373,-0.2389,-0.2418,-0.2436,-0.2456,-0.2471,-0.248,-0.2466,-0.2467,-0.2457,-0.2455,-0.2433,-0.241,-0.2375,-0.241,-0.2351,-0.2348,-0.2273,-0.2213,-0.2064,-0.1971,-0.2308,-0.2307,-0.2306,0,-0.2286,-0.2309,-0.2334,-0.2376,-0.2386,-0.2405,-0.2436,-0.2457,-0.2476,-0.2486,-0.2483,-0.2481,-0.2456,-0.2448,-0.2386,-0.2414,-0.2369,-0.2342,-0.2339,-0.2245,-0.2239,-0.2048,-0.1947,-0.2296,-0.2297,-0.2297,-0.2298,0,-0.2248,-0.2294,-0.2312,-0.2327,-0.238,-0.2395,-0.2422,-0.2452,-0.2466,-0.2487,-0.2493,-0.2476,-0.2459,-0.2417,-0.2358,-0.2378,-0.2281,-0.2301,-0.2163,-0.2156,-0.2014,-0.1995,-0.2236,-0.2236,-0.2236,-0.2236,-0.2237,0,-0.2226,-0.2238,-0.2297,-0.2305,-0.2325,-0.2375,-0.2393,-0.2422,-0.2455,-0.2454,-0.2486,-0.2469,-0.2452,-0.2401,-0.2353,-0.2225,-0.227,-0.2141,-0.2121,-0.2007,-0.199,-0.2268,-0.2272,-0.2233,-0.2234,-0.2235,-0.2235,0,-0.2167,-0.221,-0.223,-0.2289,-0.2304,-0.2316,-0.2368,-0.2377,-0.2429,-0.2428,-0.2434,-0.2453,-0.2382,-0.234,-0.226,-0.2195,-0.2103,-0.2043,-0.1903,-0.1866,-0.1996,-0.2002,-0.1884,-0.188,-0.1876,-0.1873,-0.187,0,-0.2134,-0.214,-0.2196,-0.2201,-0.2224,-0.2255,-0.2267,-0.234,-0.2352,-0.2397,-0.2382,-0.2349,-0.2265,-0.2121,-0.2013,-0.1882,-0.1977,-0.1685,-0.1683,-0.1963,-0.1956,-0.1968,-0.1978,-0.1495,-0.1489,-0.1485,-0.1481,0,-0.2059,-0.2082,-0.2095,-0.2111,-0.2127,-0.2144,-0.2176,-0.2182,-0.2253,-0.2248,-0.2213,-0.2155,-0.2035,-0.1822,-0.1682,-0.1602,-0.17,-0.1588,-0.19,-0.161,-0.159,-0.1586,-0.161,-0.1442,-0.1446,-0.1449,-0.1451,-0.1452,-0.1983,-0.1973,-0.1989,-0.1988,-0.2011,-0.2002,-0.1958,-0.1994,-0.1971,-0.1912,-0.1974,-0.1814,-0.1779,-0.1452,-0.1348,-0.1275,-0.1398,-0.1342,-0.1358,-0.1378,-0.1351,-0.1325,-0.1122,-0.1124,-0.1126,-0.1127,-0.1129,0,-0.1868,-0.1863,-0.1861,-0.1848,-0.181,-0.1871,-0.1859,-0.1772,-0.1675,-0.1653,-0.1568,-0.1335,-0.1179,-0.1152,-0.0961,-0.0917,-0.094,-0.089,-0.093,-0.0969,-0.1003,-0.096,-0.0626,-0.0624,-0.0623,-0.0622,0,0,-0.1806,-0.1752,-0.1746,-0.1637,-0.1627,-0.1512,-0.1466,-0.1356,-0.1293,-0.113,-0.1037,-0.108,-0.1094,-0.0854,-0.0803,-0.068,-0.0821,-0.0642,-0.1043,-0.1128,-0.1161,-0.1256,-0.1231,0,0,0,0,0]},{"header":{"parameterUnit":"m.s-1","parameterCategory":2,"la1":30.2991,"la2":30.254,"lo1":-89.0895,"lo2":-89.0444,"dy":0.0017,"dx":0.0017,"nx":28,"ny":28,"refTime":"2025-04-15T09:00:00:Z","depth":"2","parameterNumber":3,"parameterNumberName":"V-component_of_CURRENTS"},"data":[0,0,0,0,0,0,0,0,0,0,0,0,0,0,0,0,0,0,0,0,0,0,0,0,0,0,0,0,0,0,0,0,0,0,0,0,0,0,0,0,0,0,0,0,0,0,0,0,0,0,0,0,0,0,0,0,0,0,-0.0475,-0.0475,0,-0.0426,-0.0426,-0.0425,-0.0379,-0.0378,-0.0378,-0.0377,-0.0261,-0.0258,-0.0256,0,0,0,0,0,0,0,0,0,0,0,0,0,-0.0489,-0.0489,-0.0475,-0.0475,-0.0474,-0.0426,-0.0426,-0.0425,-0.0379,-0.0378,-0.0377,-0.0377,-0.0262,-0.0259,-0.0256,0,0,0,0,0,0,0,0,0,0,0,0,0,-0.0466,-0.0489,-0.0476,-0.0445,-0.0442,-0.0426,-0.0426,-0.0425,-0.0379,-0.0378,-0.0377,-0.0376,-0.0263,-0.0259,-0.0255,-0.025,0,0,-0.0244,-0.0242,0,0,0,0,0,0,0,0,-0.0467,-0.0466,-0.045,-0.0447,-0.0444,-0.0408,-0.0388,-0.0363,-0.0379,-0.0403,-0.0377,-0.0376,-0.0304,-0.0297,-0.0291,-0.0244,-0.0239,-0.0243,-0.0241,-0.0239,-0.0238,0,0,0,0,0,0,0,-0.0469,-0.0467,-0.0456,-0.045,-0.0446,-0.042,-0.0416,-0.0383,-0.0358,-0.0401,-0.0398,-0.0392,-0.0302,-0.0295,-0.0288,-0.0237,-0.0243,-0.024,-0.0238,-0.0236,-0.0165,-0.0166,0,0,0,0,0,0,-0.0478,-0.0469,-0.0458,-0.0455,-0.0453,-0.0421,-0.0417,-0.042,-0.036,-0.035,-0.0393,-0.039,-0.0302,-0.0292,-0.0283,-0.0261,-0.0239,-0.0236,-0.0234,-0.0165,-0.0165,-0.0166,0,0,0,0,0,0,-0.0479,-0.0478,-0.046,-0.046,-0.0456,-0.0422,-0.0426,-0.042,-0.0411,-0.0354,-0.0343,-0.039,-0.0301,-0.0289,-0.0261,-0.0256,-0.0234,-0.0231,-0.0164,-0.0165,-0.0166,-0.0223,0,0,0,0,0,0,-0.048,-0.0479,-0.0484,-0.0461,-0.0456,-0.0455,-0.0427,-0.0419,-0.0409,-0.0404,-0.0348,-0.0337,-0.0299,-0.0267,-0.0257,-0.025,-0.0228,-0.0164,-0.0165,-0.0165,-0.022,-0.0225,-0.0229,0,0,0,0,0,-0.048,-0.0494,-0.0485,-0.0484,-0.0465,-0.0456,-0.0451,-0.0423,-0.041,-0.0411,-0.0377,-0.0338,-0.0264,-0.0265,-0.0253,-0.0245,-0.0163,-0.0164,-0.0165,-0.0218,-0.0224,-0.0229,0,0,0,0,0,0,-0.0501,-0.049,-0.048,-0.0489,-0.0475,-0.0448,-0.0446,-0.043,-0.0405,-0.04,-0.0347,-0.0334,-0.0307,-0.0273,-0.0275,-0.0228,-0.0206,-0.0205,-0.025,-0.0256,-0.026,-0.0265,-0.0224,0,0,0,0,0,-0.051,-0.0518,-0.0499,-0.0506,-0.0502,-0.0476,-0.0469,-0.0453,-0.0428,-0.0416,-0.0378,-0.0337,-0.0303,-0.0279,-0.0246,-0.0222,-0.0179,-0.0208,-0.0213,-0.0217,-0.0213,-0.0157,-0.0156,-0.0169,-0.0169,-0.0169,0,0,-0.0519,-0.0514,-0.0518,-0.0511,-0.0498,-0.05,-0.047,-0.0465,-0.046,-0.0407,-0.0389,-0.0354,-0.0302,-0.0277,-0.026,-0.0245,-0.0191,-0.0218,-0.0222,-0.0216,-0.0157,-0.0156,-0.0155,-0.0169,-0.0169,-0.0169,0,0,-0.0546,-0.0539,-0.0555,-0.0549,-0.0536,-0.052,-0.0522,-0.0499,-0.0481,-0.0466,-0.0425,-0.0388,-0.0342,-0.0299,-0.0272,-0.0281,-0.0222,-0.0272,-0.029,-0.0236,-0.0234,-0.0232,-0.0178,-0.0171,-0.0269,-0.0269,-0.0269,0,-0.0557,-0.0575,-0.0557,-0.057,-0.0567,-0.0533,-0.0546,-0.0527,-0.0496,-0.0479,-0.0468,-0.0391,-0.0349,-0.0302,-0.0307,-0.0289,-0.0252,-0.0274,-0.0241,-0.0238,-0.0235,-0.018,-0.0171,-0.0272,-0.0271,-0.0271,-0.0271,0,-0.0595,-0.0607,-0.0616,-0.0621,-0.0615,-0.0621,-0.0593,-0.0581,-0.0557,-0.0528,-0.0485,-0.0431,-0.0381,-0.0363,-0.0337,-0.0293,-0.0273,-0.0258,-0.0227,-0.0237,-0.0179,-0.0168,-0.0276,-0.0275,-0.0274,-0.0273,0,0,-0.0625,-0.0641,-0.0644,-0.0656,-0.0643,-0.0644,-0.0634,-0.061,-0.0595,-0.0555,-0.0527,-0.0468,-0.0431,-0.0399,-0.0355,-0.0306,-0.0254,-0.0279,-0.0275,-0.0226,-0.0134,-0.0106,-0.0092,-0.0236,-0.0235,-0.0234,-0.0103,0,-0.0659,-0.0703,-0.0693,-0.0721,-0.0739,-0.0704,-0.0696,-0.0666,-0.0627,-0.059,-0.0519,-0.0479,-0.0446,-0.0422,-0.0369,-0.0283,-0.0229,-0.029,-0.0131,-0.0126,-0.0101,-0.008,-0.0101,0.0015,-0.0092,-0.0091,-0.0089,0,-0.07,-0.0724,-0.0766,-0.0775,-0.0778,-0.0784,-0.0758,-0.0746,-0.0677,-0.0645,-0.0584,-0.0525,-0.0445,-0.0423,-0.0272,-0.0315,-0.0231,-0.0163,-0.0156,-0.0102,-0.0079,0.0008,0.0038,-0.0071,-0.0073,-0.0074,-0.0075,0,-0.0742,-0.0772,-0.081,-0.0815,-0.0819,-0.0822,-0.0815,-0.0763,-0.0745,-0.0675,-0.0647,-0.0545,-0.0486,-0.0378,-0.0235,-0.0254,-0.0065,-0.0068,0.004,0.0043,0.0073,0.0076,0.0041,0.0041,0.004,0.004,0.004,0,-0.0788,-0.0815,-0.0836,-0.0859,-0.0891,-0.087,-0.0877,-0.0851,-0.0798,-0.0766,-0.068,-0.0622,-0.0472,-0.0345,-0.0233,-0.0055,-0.0055,0.0049,0.0083,0.0051,0.0051,0.0011,0.0006,0.0045,0.0044,0.0043,0.0042,0,-0.0833,-0.0846,-0.0892,-0.0911,-0.0918,-0.0942,-0.0935,-0.093,-0.0874,-0.0828,-0.0808,-0.0664,-0.0494,-0.0333,-0.0131,-0.0041,0.0115,0.0178,0.0131,0.0157,0.0183,0.0173,0.0305,0.0307,0.0309,0.0311,0.0312,0,-0.0861,-0.0893,-0.094,-0.097,-0.0984,-0.1009,-0.1021,-0.0981,-0.0963,-0.0844,-0.082,-0.0646,-0.0507,-0.0203,-0.001,0.0205,0.0196,0.0301,0.0262,0.0192,0.0213,0.02,0.0188,0.0282,0.0283,0.0284,0.0284,0,-0.0909,-0.0928,-0.0966,-0.1033,-0.1066,-0.1092,-0.1098,-0.1094,-0.1022,-0.0951,-0.0814,-0.069,-0.0397,-0.0152,0.0118,0.0234,0.0259,0.0323,0.0288,0.0208,0.0179,0.0195,0.0183,0.0291,0.0291,0.029,0.029,0.0289,-0.0937,-0.098,-0.1032,-0.109,-0.113,-0.1156,-0.1158,-0.1128,-0.1074,-0.0932,-0.0816,-0.0577,-0.038,0.0033,0.0202,0.0366,0.0351,0.0385,0.0379,0.0373,0.0337,0.0312,0.0443,0.0443,0.0443,0.0443,0.0444,0,-0.0966,-0.1016,-0.1081,-0.1144,-0.1185,-0.1194,-0.119,-0.1144,-0.1057,-0.0895,-0.073,-0.0436,-0.0173,0.0052,0.0311,0.0438,0.0414,0.0462,0.0396,0.0389,0.0383,0.0344,0.0453,0.0454,0.0454,0.0454,0,0,-0.0983,-0.1052,-0.1089,-0.1167,-0.1207,-0.1221,-0.1208,-0.1107,-0.0974,-0.0778,-0.0579,-0.0381,-0.0123,0.0059,0.021,0.0348,0.0335,0.0362,0.0339,0.0235,0.0227,0.0323,0.0254,0,0,0,0,0]}],[{"header":{"parameterUnit":"m.s-1","parameterCategory":2,"la1":30.2991,"la2":30.254,"lo1":-89.0895,"lo2":-89.0444,"dy":0.0017,"dx":0.0017,"nx":28,"ny":28,"refTime":"2025-04-15T09:00:00:Z","depth":"4","parameterNumber":2,"parameterNumberName":"U-component_of_CURRENTS"},"data":[0,0,0,0,0,0,0,0,0,0,0,0,0,0,0,0,0,0,0,0,0,0,0,0,0,0,0,0,0,0,0,0,0,0,0,0,0,0,0,0,0,0,0,0,0,0,0,0,0,0,0,0,0,0,0,0,0,0,-0.1666,-0.1667,0,-0.1732,-0.1733,-0.1733,-0.1789,-0.179,-0.179,-0.1791,-0.1897,-0.1899,-0.1901,0,0,0,0,0,0,0,0,0,0,0,0,0,-0.1589,-0.159,-0.1666,-0.1667,-0.1668,-0.1732,-0.1733,-0.1734,-0.1789,-0.179,-0.179,-0.1791,-0.1896,-0.1899,-0.1901,0,0,0,0,0,0,0,0,0,0,0,0,0,-0.1635,-0.1591,-0.1666,-0.1704,-0.1708,-0.1732,-0.1733,-0.1734,-0.1789,-0.179,-0.1791,-0.1792,-0.1895,-0.1899,-0.1902,-0.1901,0,0,-0.1912,-0.1913,0,0,0,0,0,0,0,0,-0.1632,-0.1637,-0.1697,-0.1701,-0.1706,-0.1754,-0.1745,-0.1792,-0.1788,-0.1757,-0.1791,-0.1792,-0.1853,-0.186,-0.1868,-0.1906,-0.1911,-0.1912,-0.1914,-0.1915,-0.1916,0,0,0,0,0,0,0,-0.1629,-0.1635,-0.1691,-0.1698,-0.1703,-0.1718,-0.1726,-0.1754,-0.1798,-0.176,-0.1764,-0.1773,-0.1855,-0.1864,-0.1871,-0.1912,-0.1912,-0.1915,-0.1917,-0.1918,-0.1992,-0.1992,0,0,0,0,0,0,-0.1622,-0.1632,-0.1689,-0.1693,-0.1672,-0.1719,-0.1727,-0.1737,-0.1797,-0.1807,-0.1772,-0.1775,-0.1858,-0.1867,-0.1875,-0.1933,-0.1915,-0.1918,-0.192,-0.1992,-0.1992,-0.1992,0,0,0,0,0,0,-0.162,-0.1626,-0.1686,-0.1665,-0.1674,-0.1719,-0.1729,-0.1738,-0.1778,-0.1806,-0.1817,-0.1807,-0.1859,-0.187,-0.1917,-0.1936,-0.192,-0.1923,-0.1992,-0.1992,-0.1992,-0.2015,0,0,0,0,0,0,-0.1617,-0.1625,-0.1643,-0.1664,-0.1675,-0.1716,-0.1729,-0.1738,-0.178,-0.1786,-0.1839,-0.1848,-0.1861,-0.1912,-0.192,-0.194,-0.1925,-0.1992,-0.1992,-0.1992,-0.2014,-0.2016,-0.2017,0,0,0,0,0,-0.1614,-0.163,-0.1643,-0.1651,-0.1694,-0.1717,-0.1724,-0.1759,-0.1781,-0.1799,-0.1833,-0.1848,-0.1917,-0.1915,-0.1925,-0.1946,-0.1992,-0.1992,-0.1992,-0.2013,-0.2015,-0.2017,0,0,0,0,0,0,-0.1609,-0.1638,-0.1653,-0.1679,-0.1704,-0.1727,-0.1753,-0.1774,-0.1815,-0.1831,-0.1858,-0.1869,-0.1912,-0.1922,-0.1919,-0.1962,-0.1953,-0.1955,-0.1967,-0.1969,-0.197,-0.1965,-0.1928,0,0,0,0,0,-0.1614,-0.1635,-0.1661,-0.1684,-0.1699,-0.1731,-0.1752,-0.1775,-0.1806,-0.1827,-0.1863,-0.1893,-0.1913,-0.1938,-0.1957,-0.1991,-0.1976,-0.2006,-0.2007,-0.2008,-0.2008,-0.1995,-0.1996,-0.1991,-0.1991,-0.1991,0,0,-0.1621,-0.1639,-0.1653,-0.1685,-0.171,-0.1735,-0.1748,-0.1785,-0.1812,-0.1832,-0.1889,-0.1906,-0.1922,-0.1953,-0.1974,-0.1972,-0.1999,-0.2008,-0.201,-0.2008,-0.1995,-0.1996,-0.1996,-0.1991,-0.1991,-0.1991,0,0,-0.1631,-0.1659,-0.1678,-0.17,-0.174,-0.1757,-0.1774,-0.1813,-0.1841,-0.1887,-0.1899,-0.1924,-0.1975,-0.1978,-0.1987,-0.2007,-0.2005,-0.2019,-0.2032,-0.202,-0.202,-0.202,-0.1994,-0.1991,-0.2023,-0.2023,-0.2023,0,-0.1641,-0.1665,-0.1688,-0.1711,-0.1734,-0.1769,-0.1795,-0.1823,-0.1875,-0.1894,-0.1912,-0.1962,-0.1981,-0.1999,-0.2004,-0.2012,-0.2002,-0.2028,-0.2022,-0.2022,-0.2022,-0.1995,-0.1992,-0.2024,-0.2024,-0.2024,-0.2024,0,-0.1655,-0.1687,-0.1702,-0.174,-0.1768,-0.1796,-0.1832,-0.1869,-0.1909,-0.1931,-0.1972,-0.1989,-0.2014,-0.2021,-0.2026,-0.2032,-0.2023,-0.2024,-0.202,-0.2024,-0.1995,-0.1991,-0.2026,-0.2026,-0.2025,-0.2025,0,0,-0.1639,-0.17,-0.1708,-0.1733,-0.1787,-0.1807,-0.1854,-0.1894,-0.1926,-0.197,-0.2002,-0.2027,-0.2037,-0.2045,-0.2048,-0.2041,-0.2028,-0.2039,-0.2038,-0.2015,-0.1995,-0.1861,-0.1844,-0.2035,-0.2034,-0.2034,-0.1972,0,-0.1645,-0.1688,-0.172,-0.1768,-0.1792,-0.1839,-0.1876,-0.1919,-0.196,-0.2,-0.2014,-0.2047,-0.2045,-0.2063,-0.2055,-0.2042,-0.2022,-0.2044,-0.1992,-0.199,-0.1872,-0.1836,-0.2033,-0.197,-0.1969,-0.1968,-0.1968,0,-0.1639,-0.1671,-0.1718,-0.178,-0.1796,-0.1835,-0.1897,-0.1936,-0.199,-0.2022,-0.2051,-0.2069,-0.2074,-0.2071,-0.2038,-0.2057,-0.2025,-0.2006,-0.2003,-0.1866,-0.1848,-0.1966,-0.1961,-0.1962,-0.1962,-0.1963,-0.1963,0,-0.1596,-0.1666,-0.1704,-0.1726,-0.1802,-0.1839,-0.1884,-0.1945,-0.1977,-0.2037,-0.2061,-0.2077,-0.2083,-0.2059,-0.202,-0.2038,-0.1968,-0.1985,-0.1826,-0.1817,-0.1951,-0.1951,-0.1943,-0.1943,-0.1943,-0.1943,-0.1943,0,-0.1567,-0.1601,-0.1694,-0.1712,-0.1761,-0.1825,-0.1879,-0.1927,-0.199,-0.2002,-0.2067,-0.2058,-0.2082,-0.2049,-0.2017,-0.1893,-0.1959,-0.1808,-0.1784,-0.196,-0.1963,-0.1948,-0.1949,-0.1941,-0.1941,-0.1942,-0.1942,0,-0.1502,-0.1566,-0.1614,-0.1708,-0.1741,-0.1776,-0.187,-0.1893,-0.1973,-0.1989,-0.2007,-0.2045,-0.1989,-0.1982,-0.1928,-0.186,-0.178,-0.1718,-0.189,-0.188,-0.1641,-0.1645,-0.1537,-0.1532,-0.1527,-0.1523,-0.152,0,-0.1466,-0.1487,-0.1595,-0.1621,-0.1669,-0.1737,-0.1769,-0.1868,-0.1884,-0.1944,-0.1926,-0.1919,-0.1916,-0.1718,-0.1745,-0.1655,-0.1634,-0.1591,-0.1626,-0.1608,-0.1596,-0.1607,-0.1617,-0.1512,-0.1511,-0.151,-0.1509,0,-0.139,-0.1445,-0.148,-0.1537,-0.1585,-0.1626,-0.1683,-0.168,-0.1761,-0.1859,-0.1769,-0.1722,-0.1651,-0.1599,-0.1534,-0.148,-0.1626,-0.1543,-0.1554,-0.1586,-0.1577,-0.1573,-0.1587,-0.1493,-0.1495,-0.1497,-0.1498,0,-0.1329,-0.1335,-0.1389,-0.1419,-0.148,-0.1472,-0.1526,-0.1518,-0.1544,-0.1618,-0.1576,-0.1566,-0.1609,-0.1504,-0.1447,-0.1379,-0.1366,-0.133,-0.1351,-0.1369,-0.1344,-0.131,-0.11,0,0,0,0,0,-0.1254,-0.1238,-0.126,-0.1276,-0.133,-0.1356,-0.1438,-0.1491,-0.1575,-0.1458,-0.1511,-0.1431,-0.1337,-0.1348,-0.1239,-0.1386,-0.1384,-0.1257,-0.1358,-0.1404,-0.1423,-0.141,0,0,0,0,0,0,-0.1201,-0.1216,-0.121,-0.1144,-0.1125,-0.1157,-0.1198,-0.126,-0.121,-0.1303,-0.1252,-0.1333,-0.1263,-0.135,-0.1198,-0.1202,-0.1234,-0.1275,-0.127,-0.1394,-0.1411,-0.1425,-0.1419,0,0,0,0,0]},{"header":{"parameterUnit":"m.s-1","parameterCategory":2,"la1":30.2991,"la2":30.254,"lo1":-89.0895,"lo2":-89.0444,"dy":0.0017,"dx":0.0017,"nx":28,"ny":28,"refTime":"2025-04-15T09:00:00:Z","depth":"4","parameterNumber":3,"parameterNumberName":"V-component_of_CURRENTS"},"data":[0,0,0,0,0,0,0,0,0,0,0,0,0,0,0,0,0,0,0,0,0,0,0,0,0,0,0,0,0,0,0,0,0,0,0,0,0,0,0,0,0,0,0,0,0,0,0,0,0,0,0,0,0,0,0,0,0,0,-0.0376,-0.0376,0,-0.0355,-0.0354,-0.0354,-0.0329,-0.0329,-0.0328,-0.0328,-0.0258,-0.0257,-0.0255,0,0,0,0,0,0,0,0,0,0,0,0,0,-0.0365,-0.0366,-0.0376,-0.0376,-0.0376,-0.0355,-0.0354,-0.0354,-0.0329,-0.0329,-0.0328,-0.0328,-0.0259,-0.0257,-0.0255,0,0,0,0,0,0,0,0,0,0,0,0,0,-0.036,-0.0366,-0.0376,-0.0361,-0.0359,-0.0355,-0.0354,-0.0354,-0.0329,-0.0329,-0.0328,-0.0327,-0.0259,-0.0257,-0.0255,-0.0252,0,0,-0.0248,-0.0247,0,0,0,0,0,0,0,0,-0.036,-0.036,-0.0363,-0.0362,-0.036,-0.0344,-0.0325,-0.0318,-0.0329,-0.0341,-0.0328,-0.0327,-0.0283,-0.0278,-0.0276,-0.0249,-0.0246,-0.0248,-0.0246,-0.0245,-0.0245,0,0,0,0,0,0,0,-0.036,-0.0361,-0.0368,-0.0363,-0.0361,-0.0344,-0.0343,-0.0324,-0.0314,-0.034,-0.0338,-0.0335,-0.0281,-0.0279,-0.0274,-0.0245,-0.0248,-0.0246,-0.0244,-0.0243,-0.021,-0.0211,0,0,0,0,0,0,-0.0365,-0.0361,-0.0368,-0.0367,-0.0358,-0.0345,-0.0344,-0.035,-0.0315,-0.031,-0.0336,-0.0334,-0.0283,-0.0277,-0.0272,-0.0258,-0.0245,-0.0243,-0.0242,-0.021,-0.021,-0.0211,0,0,0,0,0,0,-0.0365,-0.0367,-0.0369,-0.0363,-0.0362,-0.0346,-0.0353,-0.035,-0.035,-0.0313,-0.0307,-0.034,-0.0282,-0.0275,-0.0265,-0.0256,-0.0242,-0.024,-0.0209,-0.021,-0.021,-0.0236,0,0,0,0,0,0,-0.0365,-0.0367,-0.0376,-0.0364,-0.0363,-0.0373,-0.0353,-0.035,-0.0349,-0.0347,-0.0314,-0.0307,-0.0281,-0.0269,-0.0263,-0.0252,-0.0238,-0.0208,-0.0209,-0.021,-0.0235,-0.0238,-0.024,0,0,0,0,0,-0.0365,-0.038,-0.0377,-0.0377,-0.0375,-0.0374,-0.0372,-0.0358,-0.035,-0.0355,-0.0336,-0.0308,-0.0269,-0.0268,-0.026,-0.0249,-0.0208,-0.0209,-0.021,-0.0234,-0.0237,-0.024,0,0,0,0,0,0,-0.0379,-0.0378,-0.0374,-0.0388,-0.0384,-0.0369,-0.0374,-0.0365,-0.0355,-0.0354,-0.0318,-0.0311,-0.0297,-0.0277,-0.0276,-0.0244,-0.0232,-0.0232,-0.0252,-0.0256,-0.0258,-0.0248,-0.0237,0,0,0,0,0,-0.0388,-0.0399,-0.0392,-0.0404,-0.0404,-0.0391,-0.039,-0.0382,-0.037,-0.0366,-0.0343,-0.0319,-0.0296,-0.028,-0.0262,-0.0247,-0.0213,-0.0235,-0.0238,-0.024,-0.0229,-0.0173,-0.0169,-0.0214,-0.0214,-0.0214,0,0,-0.0396,-0.0397,-0.0404,-0.0407,-0.0403,-0.0405,-0.0389,-0.0393,-0.0389,-0.0359,-0.0351,-0.0332,-0.0297,-0.028,-0.0271,-0.026,-0.0215,-0.0241,-0.0243,-0.023,-0.0173,-0.0169,-0.0165,-0.0215,-0.0215,-0.0215,0,0,-0.0415,-0.0421,-0.0434,-0.0434,-0.0432,-0.0424,-0.0428,-0.0419,-0.0409,-0.0406,-0.0377,-0.0351,-0.0331,-0.0291,-0.027,-0.0277,-0.0236,-0.0279,-0.0275,-0.0221,-0.0217,-0.0212,-0.0181,-0.0173,-0.0274,-0.0274,-0.0274,0,-0.0425,-0.044,-0.0437,-0.0446,-0.0445,-0.0434,-0.0441,-0.0431,-0.0419,-0.0405,-0.0409,-0.0355,-0.0327,-0.0278,-0.0282,-0.0278,-0.0255,-0.0264,-0.0223,-0.0217,-0.0212,-0.0181,-0.0172,-0.0275,-0.0275,-0.0275,-0.0275,0,-0.0446,-0.0459,-0.0468,-0.0473,-0.0473,-0.0481,-0.0465,-0.0462,-0.0453,-0.0433,-0.04,-0.0366,-0.0327,-0.0316,-0.0301,-0.0248,-0.0248,-0.0237,-0.0211,-0.0208,-0.0177,-0.0167,-0.0277,-0.0277,-0.0276,-0.0276,0,0,-0.0462,-0.048,-0.0484,-0.0492,-0.0489,-0.0493,-0.0483,-0.0465,-0.0454,-0.0432,-0.0406,-0.0358,-0.0335,-0.031,-0.028,-0.0231,-0.0181,-0.0223,-0.022,-0.0186,-0.0081,-0.0107,-0.0099,-0.0165,-0.0163,-0.0162,-0.008,0,-0.0479,-0.0507,-0.0504,-0.0523,-0.0534,-0.0518,-0.0511,-0.0491,-0.047,-0.0445,-0.0386,-0.036,-0.0333,-0.0321,-0.0263,-0.0206,-0.0153,-0.0205,-0.0093,-0.009,-0.0107,-0.0087,-0.0155,-0.0073,-0.007,-0.0069,-0.0067,0,-0.0496,-0.0514,-0.0541,-0.0551,-0.0553,-0.0562,-0.0547,-0.0538,-0.0489,-0.0471,-0.0418,-0.0381,-0.0304,-0.0292,-0.0163,-0.0202,-0.0141,-0.0092,-0.0087,-0.009,-0.0096,-0.0071,-0.0049,-0.005,-0.0052,-0.0053,-0.0054,0,-0.0512,-0.0536,-0.0562,-0.0567,-0.0576,-0.0582,-0.0583,-0.0549,-0.0542,-0.0488,-0.0478,-0.038,-0.0345,-0.0243,-0.0148,-0.0154,-0.0015,-0.0008,0.0034,0.0032,0.0043,0.0038,0.0097,0.0097,0.0097,0.0097,0.0097,0,-0.0527,-0.0549,-0.058,-0.0596,-0.0627,-0.0615,-0.0631,-0.0613,-0.0584,-0.0572,-0.0499,-0.0466,-0.0332,-0.0242,-0.0147,-0.0033,-0.0008,0.0045,0.006,0.0025,0.0017,0.005,0.0043,0.01,0.0099,0.0099,0.0098,0,-0.0542,-0.056,-0.0599,-0.0627,-0.0641,-0.0666,-0.0688,-0.0692,-0.0659,-0.0642,-0.0629,-0.0526,-0.0409,-0.0277,-0.0114,-0.0044,0.0073,0.011,0.0049,0.0057,0.0085,0.0076,0.0173,0.0173,0.0173,0.0172,0.0172,0,-0.055,-0.0574,-0.0636,-0.0672,-0.0694,-0.0731,-0.0756,-0.0739,-0.0737,-0.0677,-0.0667,-0.0557,-0.0476,-0.026,-0.0127,0.0058,0.0083,0.0136,0.0133,0.0093,0.0098,0.0089,0.008,0.0172,0.0172,0.0172,0.0172,0,-0.0568,-0.06,-0.0636,-0.0717,-0.0764,-0.0805,-0.0834,-0.0836,-0.0801,-0.0776,-0.0681,-0.0562,-0.0431,-0.0261,-0.0124,0.0009,0.0098,0.0137,0.0138,0.0135,0.0094,0.0097,0.0088,0.0172,0.0172,0.0172,0.0172,0,-0.0585,-0.0623,-0.0684,-0.0748,-0.0815,-0.0856,-0.0868,-0.085,-0.0836,-0.0755,-0.0726,-0.0572,-0.0476,-0.0287,-0.016,-0.0035,0.0001,0.004,0.0047,0.0048,-0.0017,-0.009,-0.0043,0,0,0,0,0,-0.0594,-0.0641,-0.0709,-0.0779,-0.0846,-0.0877,-0.0906,-0.0902,-0.0869,-0.0804,-0.0757,-0.0627,-0.0419,-0.0328,-0.0203,-0.0174,0.0005,-0.0028,0.0048,0.0171,0.0172,0.0114,0,0,0,0,0,0,-0.0604,-0.0671,-0.0708,-0.0789,-0.0837,-0.0899,-0.0916,-0.0895,-0.0845,-0.0794,-0.0678,-0.0606,-0.0403,-0.0483,-0.0201,-0.0164,-0.0102,0.0074,0.0076,0.0171,0.0171,0.0172,0.0112,0,0,0,0,0]}]]